Weather History for KMKG - December, 2011

Change the Weather History Date:

Saturday, December 10, 2011

  Actual Average Record
Temperature  
Mean Temperature 28 °F 32 °F  
Max Temperature 34 °F 36 °F 61 °F (1971)
Min Temperature 22 °F 27 °F 6 °F (1932)
Degree Days  
Heating Degree Days 37 33  
Month to date heating degree days 300 321  
Since 1 July heating degree days 1463 1688  
Cooling Degree Days 0 0  
Month to date cooling degree days 0 0  
Year to date cooling degree days 752 566  
Moisture  
Dew Point 13 °F    
Average Humidity 58    
Maximum Humidity 69    
Minimum Humidity 46    
Precipitation  
Precipitation 0.00 in 0.09 in 1.82 in (1971)
Month to date precipitation 0.64 0.94  
Year to date precipitation 40.20 31.88  
Snow  
Snow 0.00 in 0.90 in 8.00 in (1977)
Month to date snowfall 0.3 7.8  
Since 1 July snowfall 0.4 14.0  
Snow Depth 0.00 in    
Sea Level Pressure  
Sea Level Pressure 30.42 in    
Wind  
Wind Speed 12 mph (WSW)    
Max Wind Speed 21 mph    
Max Gust Speed 26 mph    
Visibility 10 miles    
Events      
T = Trace of Precipitation, MM = Missing Value Source: NWS Daily Summary

Daily Weather History Graph

Daily Weather History Graph

Search for Another Location

Airport or City:

Trip Planner

Search our weather history database for the weather conditions in past years. The results will help you decide how hot, cold, wet, or windy it might be!

Date:

Astronomy

Dec. 10, 2011 Rise Set
Actual Time 8:05 AM EST 5:09 PM EST
Civil Twilight 7:33 AM EST 5:41 PM EST
Nautical Twilight 6:57 AM EST 6:17 PM EST
Astronomical Twilight 6:22 AM EST 6:52 PM EST
Moon 5:22 PM EST (12/10) 8:05 AM EST (12/10)
Length of Visible Light 10h 08m
Length of Day
9h 03m
Full, 100% of the Moon is Illuminated
Dec 10
Full
Dec 17
Last Quarter
Dec 24
New
Jan 1
First Quarter
Jan 9
Full

Hourly Weather History & Observations

Time (EST) Temp. Windchill Dew Point Humidity Pressure Visibility Wind Dir Wind Speed Gust Speed Precip Events Conditions
12:55 AM 24.1 °F 14.4 °F 9.0 °F 53% 30.39 in 10.0 mi West 9.2 mph 17.3 mph N/A   Mostly Cloudy
1:55 AM 24.1 °F 12.0 °F 9.0 °F 53% 30.38 in 10.0 mi WNW 13.8 mph 19.6 mph N/A   Mostly Cloudy
2:55 AM 23.0 °F 12.4 °F 9.0 °F 55% 30.40 in 10.0 mi WNW 10.4 mph - N/A   Mostly Cloudy
3:55 AM 23.0 °F 14.7 °F 10.0 °F 58% 30.41 in 10.0 mi WNW 6.9 mph - N/A   Mostly Cloudy
4:55 AM 23.0 °F 14.7 °F 10.0 °F 58% 30.40 in 10.0 mi West 6.9 mph - N/A   Overcast
5:55 AM 21.9 °F 14.5 °F 10.9 °F 63% 30.41 in 10.0 mi West 5.8 mph - N/A   Mostly Cloudy
6:55 AM 23.0 °F 13.1 °F 10.0 °F 58% 30.43 in 10.0 mi West 9.2 mph - N/A   Mostly Cloudy
7:55 AM 23.0 °F 14.7 °F 10.9 °F 60% 30.44 in 10.0 mi West 6.9 mph - N/A   Mostly Cloudy
8:55 AM 24.1 °F 14.4 °F 12.0 °F 60% 30.45 in 10.0 mi West 9.2 mph - N/A   Mostly Cloudy
9:55 AM 26.1 °F 15.0 °F 12.0 °F 55% 30.47 in 10.0 mi West 12.7 mph 17.3 mph N/A   Scattered Clouds
10:55 AM 28.0 °F 20.0 °F 12.0 °F 51% 30.48 in 10.0 mi WSW 8.1 mph - N/A   Mostly Cloudy
11:55 AM 26.6 °F 16.8 °F 10.4 °F 51% 30.45 in 10.0 mi West 10.4 mph - N/A   Overcast
12:55 PM 26.1 °F 15.0 °F 10.0 °F 51% 30.46 in 10.0 mi West 12.7 mph - N/A   Scattered Clouds
1:55 PM 27.0 °F 15.2 °F 10.9 °F 51% 30.45 in 10.0 mi WSW 15.0 mph - N/A   Clear
2:55 PM 28.0 °F 18.6 °F 10.0 °F 47% 30.44 in 10.0 mi SW 10.4 mph - N/A   Partly Cloudy
3:55 PM 28.9 °F 19.2 °F 10.9 °F 47% 30.43 in 10.0 mi WSW 11.5 mph - N/A   Clear
4:55 PM 27.0 °F 15.6 °F 10.9 °F 51% 30.43 in 10.0 mi SW 13.8 mph - N/A   Clear
5:55 PM 28.0 °F 17.5 °F 15.1 °F 58% 30.43 in 10.0 mi SSW 12.7 mph - N/A   Mostly Cloudy
6:55 PM 30.0 °F 18.7 °F 14.0 °F 51% 30.41 in 10.0 mi SW 16.1 mph 21.9 mph N/A   Overcast
7:55 PM 30.9 °F 21.2 °F 15.1 °F 52% 30.42 in 10.0 mi SW 12.7 mph - N/A   Overcast
8:55 PM 30.9 °F 19.8 °F 19.0 °F 61% 30.41 in 10.0 mi SW 16.1 mph 21.9 mph N/A   Overcast
9:11 PM 30.2 °F 19.8 °F 19.4 °F 64% 30.39 in 10.0 mi SW 13.8 mph - N/A   Overcast
9:55 PM 32.0 °F 21.2 °F 19.9 °F 61% 30.41 in 10.0 mi SW 16.1 mph - N/A   Overcast
10:55 PM 33.1 °F 21.5 °F 24.1 °F 70% 30.40 in 10.0 mi SW 19.6 mph 26.5 mph N/A   Overcast
11:55 PM 34.0 °F 23.8 °F 25.0 °F 70% 30.40 in 10.0 mi SW 16.1 mph - N/A   Overcast